Location: *
(37.9500°N, 27.3666°E)
Time: 04:50:04
(UTC+00:00)

Cosmos 1844 Rocket - Pass Details

Date: 24 October 2021
Orbit: 826 x 843 km, 71.0° (Epoch: 03 December)

Event Time Altitude Azimuth Distance (km) Brightness Sun altitude
Rises 15:41:22 0° 355° (N) 3,371 5.8 -4.8°
Reaches altitude 10° 15:45:09 10° 20° (NNE) 2,433 4.8 -5.5°
Maximum altitude 15:47:57 14° 51° (NE) 2,166 4.3 -6.0°
Drops below altitude 10° 15:50:44 10° 81° (E) 2,428 4.4 -6.6°
Enters shadow 15:51:46 - 90° (E) 2,635 4.6 -6.8°
